Year,Month,Day,Hour,Minute,Value (Times are PST for temperature in C)
2015,08,13,00,00,16.60
2015,08,13,00,01,16.60
2015,08,13,00,02,16.60
2015,08,13,00,03,16.60
2015,08,13,00,04,16.50
2015,08,13,00,05,16.50
2015,08,13,00,06,16.50
2015,08,13,00,07,16.50
2015,08,13,00,08,16.40
2015,08,13,00,09,16.40
2015,08,13,00,10,16.40
2015,08,13,00,11,16.40
2015,08,13,00,12,16.40
2015,08,13,00,13,16.40
2015,08,13,00,14,16.30
2015,08,13,00,15,16.30
2015,08,13,00,16,16.30
2015,08,13,00,17,16.30
2015,08,13,00,18,16.30
2015,08,13,00,19,16.20
2015,08,13,00,20,16.20
2015,08,13,00,21,16.20
2015,08,13,00,22,16.10
2015,08,13,00,23,16.10
2015,08,13,00,24,16.00
2015,08,13,00,25,16.00
2015,08,13,00,26,16.00
2015,08,13,00,27,15.90
2015,08,13,00,28,15.90
2015,08,13,00,29,15.80
2015,08,13,00,30,15.80
2015,08,13,00,31,15.80
2015,08,13,00,32,15.70
2015,08,13,00,33,15.70
2015,08,13,00,34,15.70
2015,08,13,00,35,15.70
2015,08,13,00,36,15.60
2015,08,13,00,37,15.60
2015,08,13,00,38,15.60
2015,08,13,00,39,15.60
2015,08,13,00,40,15.60
2015,08,13,00,41,15.50
2015,08,13,00,42,15.50
2015,08,13,00,43,15.50
2015,08,13,00,44,15.50
2015,08,13,00,45,15.40
2015,08,13,00,46,15.40
2015,08,13,00,47,15.40
2015,08,13,00,48,15.30
2015,08,13,00,49,15.30
2015,08,13,00,50,15.30
2015,08,13,00,51,15.30
2015,08,13,00,52,15.20
2015,08,13,00,53,15.20
2015,08,13,00,54,15.20
2015,08,13,00,55,15.20
2015,08,13,00,56,15.10
2015,08,13,00,57,15.10
2015,08,13,00,58,15.00
2015,08,13,00,59,15.00
2015,08,13,01,00,15.00
2015,08,13,01,01,15.00
2015,08,13,01,02,15.00
2015,08,13,01,03,15.00
2015,08,13,01,04,15.00
2015,08,13,01,05,15.00
2015,08,13,01,06,15.00
2015,08,13,01,07,15.00
2015,08,13,01,08,15.00
2015,08,13,01,09,15.00
2015,08,13,01,10,15.00
2015,08,13,01,11,15.00
2015,08,13,01,12,15.00
2015,08,13,01,13,15.00
2015,08,13,01,14,15.00
2015,08,13,01,15,15.00
2015,08,13,01,16,15.00
2015,08,13,01,17,15.00
2015,08,13,01,18,15.00
2015,08,13,01,19,15.00
2015,08,13,01,20,15.00
2015,08,13,01,21,15.00
2015,08,13,01,22,15.00
2015,08,13,01,23,15.00
2015,08,13,01,24,15.00
2015,08,13,01,25,15.00
2015,08,13,01,26,15.00
2015,08,13,01,27,15.00
2015,08,13,01,28,15.00
2015,08,13,01,29,14.90
2015,08,13,01,30,14.90
2015,08,13,01,31,14.90
2015,08,13,01,32,14.80
2015,08,13,01,33,14.80
2015,08,13,01,34,14.80
2015,08,13,01,35,14.80
2015,08,13,01,36,14.80
2015,08,13,01,37,14.80
2015,08,13,01,38,14.80
2015,08,13,01,39,14.80
2015,08,13,01,40,14.80
2015,08,13,01,41,14.80
2015,08,13,01,42,14.80
2015,08,13,01,43,14.80
2015,08,13,01,44,14.80
2015,08,13,01,45,14.80
2015,08,13,01,46,14.80
2015,08,13,01,47,14.80
2015,08,13,01,48,14.80
2015,08,13,01,49,14.80
2015,08,13,01,50,14.80
2015,08,13,01,51,14.80
2015,08,13,01,52,14.80
2015,08,13,01,53,14.70
2015,08,13,01,54,14.70
2015,08,13,01,55,14.70
2015,08,13,01,56,14.70
2015,08,13,01,57,14.70
2015,08,13,01,58,14.70
2015,08,13,01,59,14.70
2015,08,13,02,00,14.70
2015,08,13,02,01,14.70
2015,08,13,02,02,14.70
2015,08,13,02,03,14.70
2015,08,13,02,04,14.70
2015,08,13,02,05,14.70
2015,08,13,02,06,14.70
2015,08,13,02,07,14.70
2015,08,13,02,08,14.70
2015,08,13,02,09,14.70
2015,08,13,02,10,14.70
2015,08,13,02,11,14.70
2015,08,13,02,12,14.70
2015,08,13,02,13,14.70
2015,08,13,02,14,14.70
2015,08,13,02,15,14.70
2015,08,13,02,16,14.70
2015,08,13,02,17,14.70
2015,08,13,02,18,14.70
2015,08,13,02,19,14.60
2015,08,13,02,20,14.60
2015,08,13,02,21,14.60
2015,08,13,02,22,14.60
2015,08,13,02,23,14.60
2015,08,13,02,24,14.60
2015,08,13,02,25,14.60
2015,08,13,02,26,14.60
2015,08,13,02,27,14.60
2015,08,13,02,28,14.60
2015,08,13,02,29,14.60
2015,08,13,02,30,14.60
2015,08,13,02,31,14.60
2015,08,13,02,32,14.60
2015,08,13,02,33,14.50
2015,08,13,02,34,14.50
2015,08,13,02,35,14.50
2015,08,13,02,36,14.50
2015,08,13,02,37,14.50
2015,08,13,02,38,14.50
2015,08,13,02,39,14.50
2015,08,13,02,40,14.50
2015,08,13,02,41,14.50
2015,08,13,02,42,14.50
2015,08,13,02,43,14.50
2015,08,13,02,44,14.50
2015,08,13,02,45,14.50
2015,08,13,02,46,14.50
2015,08,13,02,47,14.50
2015,08,13,02,48,14.50
2015,08,13,02,49,14.50
2015,08,13,02,50,14.50
2015,08,13,02,51,14.50
2015,08,13,02,52,14.50
2015,08,13,02,53,14.40
2015,08,13,02,54,14.40
2015,08,13,02,55,14.40
2015,08,13,02,56,14.40
2015,08,13,02,57,14.40
2015,08,13,02,58,14.40
2015,08,13,02,59,14.40
2015,08,13,03,00,14.30
2015,08,13,03,01,14.30
2015,08,13,03,02,14.30
2015,08,13,03,03,14.30
2015,08,13,03,04,14.30
2015,08,13,03,05,14.30
2015,08,13,03,06,14.30
2015,08,13,03,07,14.30
2015,08,13,03,08,14.30
2015,08,13,03,09,14.30
2015,08,13,03,10,14.30
2015,08,13,03,11,14.30
2015,08,13,03,12,14.30
2015,08,13,03,13,14.20
2015,08,13,03,14,14.20
2015,08,13,03,15,14.20
2015,08,13,03,16,14.10
2015,08,13,03,17,14.10
2015,08,13,03,18,14.00
2015,08,13,03,19,14.00
2015,08,13,03,20,14.00
2015,08,13,03,21,14.00
2015,08,13,03,22,14.00
2015,08,13,03,23,13.90
2015,08,13,03,24,13.90
2015,08,13,03,25,13.90
2015,08,13,03,26,13.90
2015,08,13,03,27,13.90
2015,08,13,03,28,13.90
2015,08,13,03,29,14.00
2015,08,13,03,30,14.00
2015,08,13,03,31,14.00
2015,08,13,03,32,14.00
2015,08,13,03,33,14.00
2015,08,13,03,34,14.00
2015,08,13,03,35,14.00
2015,08,13,03,36,14.00
2015,08,13,03,37,14.00
2015,08,13,03,38,14.00
2015,08,13,03,39,14.10
2015,08,13,03,40,14.00
2015,08,13,03,41,14.00
2015,08,13,03,42,14.00
2015,08,13,03,43,14.00
2015,08,13,03,44,14.00
2015,08,13,03,45,14.00
2015,08,13,03,49,13.90
2015,08,13,03,50,13.90
2015,08,13,03,51,13.90
2015,08,13,03,52,13.90
2015,08,13,03,53,13.90
2015,08,13,03,54,13.90
2015,08,13,03,55,13.90
2015,08,13,03,56,13.90
2015,08,13,03,57,13.90
2015,08,13,03,58,13.80
2015,08,13,03,59,13.80
2015,08,13,04,00,13.80
2015,08,13,04,01,13.80
2015,08,13,04,02,13.80
2015,08,13,04,03,13.80
2015,08,13,04,04,13.80
2015,08,13,04,05,13.80
2015,08,13,04,06,13.80
2015,08,13,04,07,13.80
2015,08,13,04,08,13.80
2015,08,13,04,09,13.80
2015,08,13,04,10,13.80
2015,08,13,04,11,13.80
2015,08,13,04,12,13.70
2015,08,13,04,13,13.70
2015,08,13,04,14,13.70
2015,08,13,04,15,13.70
2015,08,13,04,16,13.70
2015,08,13,04,17,13.70
2015,08,13,04,18,13.70
2015,08,13,04,19,13.70
2015,08,13,04,20,13.70
2015,08,13,04,21,13.60
2015,08,13,04,22,13.60
2015,08,13,04,23,13.60
2015,08,13,04,24,13.60
2015,08,13,04,25,13.60
2015,08,13,04,26,13.60
2015,08,13,04,27,13.60
2015,08,13,04,28,13.60
2015,08,13,04,29,13.60
2015,08,13,04,30,13.50
2015,08,13,04,31,13.50
2015,08,13,04,32,13.50
2015,08,13,04,33,13.50
2015,08,13,04,34,13.50
2015,08,13,04,35,13.50
2015,08,13,04,36,13.40
2015,08,13,04,37,13.40
2015,08,13,04,38,13.40
2015,08,13,04,39,13.40
2015,08,13,04,40,13.40
2015,08,13,04,41,13.40
2015,08,13,04,42,13.40
2015,08,13,04,43,13.40
2015,08,13,04,44,13.40
2015,08,13,04,45,13.40
2015,08,13,04,46,13.40
2015,08,13,04,47,13.40
2015,08,13,04,48,13.40
2015,08,13,04,49,13.40
2015,08,13,04,50,13.30
2015,08,13,04,51,13.30
2015,08,13,04,52,13.30
2015,08,13,04,53,13.30
2015,08,13,04,54,13.30
2015,08,13,04,55,13.30
2015,08,13,04,56,13.30
2015,08,13,04,57,13.30
2015,08,13,04,58,13.30
2015,08,13,04,59,13.30
2015,08,13,05,00,13.20
2015,08,13,05,01,13.20
2015,08,13,05,02,13.20
2015,08,13,05,03,13.20
2015,08,13,05,04,13.20
2015,08,13,05,05,13.20
2015,08,13,05,06,13.10
2015,08,13,05,07,13.10
2015,08,13,05,08,13.10
2015,08,13,05,09,13.10
2015,08,13,05,10,13.10
2015,08,13,05,11,13.10
2015,08,13,05,12,13.10
2015,08,13,05,13,13.10
2015,08,13,05,14,13.10
2015,08,13,05,15,13.10
2015,08,13,05,16,13.10
2015,08,13,05,17,13.10
2015,08,13,05,18,13.10
2015,08,13,05,19,13.10
2015,08,13,05,20,13.10
2015,08,13,05,21,13.10
2015,08,13,05,22,13.10
2015,08,13,05,23,13.10
2015,08,13,05,24,13.10
2015,08,13,05,25,13.10
2015,08,13,05,26,13.10
2015,08,13,05,27,13.10
2015,08,13,05,28,13.10
2015,08,13,05,29,13.10
2015,08,13,05,30,13.10
2015,08,13,05,31,13.10
2015,08,13,05,32,13.00
2015,08,13,05,33,13.00
2015,08,13,05,34,13.00
2015,08,13,05,35,13.00
2015,08,13,05,36,13.00
2015,08,13,05,37,13.00
2015,08,13,05,38,13.00
2015,08,13,05,39,13.00
2015,08,13,05,40,13.00
2015,08,13,05,41,13.00
2015,08,13,05,42,12.90
2015,08,13,05,43,12.90
2015,08,13,05,44,12.90
2015,08,13,05,45,12.90
2015,08,13,05,46,12.90
2015,08,13,05,47,12.90
2015,08,13,05,48,12.90
2015,08,13,05,49,12.90
2015,08,13,05,50,12.90
2015,08,13,05,51,12.90
2015,08,13,05,52,12.90
2015,08,13,05,53,12.80
2015,08,13,05,54,12.80
2015,08,13,05,55,12.80
2015,08,13,05,56,12.80
2015,08,13,05,57,12.80
2015,08,13,05,58,12.80
2015,08,13,05,59,12.80
2015,08,13,06,00,12.80
2015,08,13,06,01,12.80
2015,08,13,06,02,12.80
2015,08,13,06,03,12.80
2015,08,13,06,04,12.80
2015,08,13,06,05,12.80
2015,08,13,06,06,12.80
2015,08,13,06,07,12.70
2015,08,13,06,08,12.70
2015,08,13,06,09,12.70
2015,08,13,06,10,12.70
2015,08,13,06,11,12.70
2015,08,13,06,12,12.70
2015,08,13,06,13,12.70
2015,08,13,06,14,12.70
2015,08,13,06,15,12.70
2015,08,13,06,16,12.80
2015,08,13,06,17,12.80
2015,08,13,06,18,12.70
2015,08,13,06,19,12.70
2015,08,13,06,20,12.70
2015,08,13,06,21,12.70
2015,08,13,06,22,12.70
2015,08,13,06,23,12.70
2015,08,13,06,24,12.70
2015,08,13,06,25,12.70
2015,08,13,06,26,12.70
2015,08,13,06,27,12.70
2015,08,13,06,28,12.70
2015,08,13,06,29,12.70
2015,08,13,06,30,12.70
2015,08,13,06,31,12.70
2015,08,13,06,32,12.70
2015,08,13,06,33,12.70
2015,08,13,06,34,12.70
2015,08,13,06,35,12.70
2015,08,13,06,36,12.70
2015,08,13,06,37,12.70
2015,08,13,06,38,12.70
2015,08,13,06,39,12.70
2015,08,13,06,40,12.70
2015,08,13,06,41,12.70
2015,08,13,06,42,12.70
2015,08,13,06,43,12.70
2015,08,13,06,44,12.70
2015,08,13,06,45,12.80
2015,08,13,06,46,12.80
2015,08,13,06,47,12.80
2015,08,13,06,48,12.80
2015,08,13,06,49,12.80
2015,08,13,06,50,12.80
2015,08,13,06,51,12.80
2015,08,13,06,52,12.80
2015,08,13,06,53,12.80
2015,08,13,06,54,12.80
2015,08,13,06,55,12.80
2015,08,13,06,56,12.80
2015,08,13,06,57,12.80
2015,08,13,06,58,12.80
2015,08,13,06,59,12.80
2015,08,13,07,00,12.80
2015,08,13,07,01,12.80
2015,08,13,07,02,12.80
2015,08,13,07,03,12.80
2015,08,13,07,04,12.90
2015,08,13,07,05,12.90
2015,08,13,07,06,12.90
2015,08,13,07,07,12.90
2015,08,13,07,08,13.00
2015,08,13,07,09,13.00
2015,08,13,07,10,13.00
2015,08,13,07,11,13.10
2015,08,13,07,12,13.10
2015,08,13,07,13,13.10
2015,08,13,07,14,13.20
2015,08,13,07,15,13.20
2015,08,13,07,16,13.20
2015,08,13,07,17,13.30
2015,08,13,07,18,13.30
2015,08,13,07,19,13.30
2015,08,13,07,20,13.40
2015,08,13,07,21,13.40
2015,08,13,07,22,13.40
2015,08,13,07,23,13.50
2015,08,13,07,24,13.50
2015,08,13,07,25,13.60
2015,08,13,07,26,13.60
2015,08,13,07,27,13.60
2015,08,13,07,28,13.70
2015,08,13,07,29,13.70
2015,08,13,07,30,13.70
2015,08,13,07,31,13.70
2015,08,13,07,32,13.80
2015,08,13,07,33,13.80
2015,08,13,07,34,13.80
2015,08,13,07,35,13.80
2015,08,13,07,36,13.80
2015,08,13,07,37,13.90
2015,08,13,07,38,13.90
2015,08,13,07,39,14.00
2015,08,13,07,40,14.10
2015,08,13,07,41,14.20
2015,08,13,07,42,14.20
2015,08,13,07,43,14.30
2015,08,13,07,44,14.40
2015,08,13,07,45,14.50
2015,08,13,07,46,14.60
2015,08,13,07,47,14.60
2015,08,13,07,48,14.70
2015,08,13,07,49,14.80
2015,08,13,07,50,14.80
2015,08,13,07,51,14.90
2015,08,13,07,52,15.00
2015,08,13,07,53,15.00
2015,08,13,07,54,15.00
2015,08,13,07,55,15.20
2015,08,13,07,56,15.40
2015,08,13,07,57,15.60
2015,08,13,07,58,15.70
2015,08,13,07,59,15.80
2015,08,13,08,00,16.00
2015,08,13,08,01,16.10
2015,08,13,08,02,16.20
2015,08,13,08,03,16.30
2015,08,13,08,04,16.50
2015,08,13,08,05,16.60
2015,08,13,08,06,16.80
2015,08,13,08,07,16.90
2015,08,13,08,08,17.10
2015,08,13,08,09,17.20
2015,08,13,08,10,17.30
2015,08,13,08,11,17.50
2015,08,13,08,12,17.60
2015,08,13,08,13,17.70
2015,08,13,08,14,17.90
2015,08,13,08,15,18.00
2015,08,13,08,16,18.20
2015,08,13,08,17,18.30
2015,08,13,08,18,18.40
2015,08,13,08,19,18.40
2015,08,13,08,20,18.60
2015,08,13,08,21,18.70
2015,08,13,08,22,18.80
2015,08,13,08,23,18.90
2015,08,13,08,24,19.00
2015,08,13,08,25,19.00
2015,08,13,08,26,19.10
2015,08,13,08,27,19.10
2015,08,13,08,28,19.10
2015,08,13,08,29,19.10
2015,08,13,08,30,19.20
2015,08,13,08,31,19.10
2015,08,13,08,32,19.10
2015,08,13,08,33,19.00
2015,08,13,08,34,19.00
2015,08,13,08,35,18.90
2015,08,13,08,36,18.80
2015,08,13,08,37,18.80
2015,08,13,08,38,18.70
2015,08,13,08,39,18.70
2015,08,13,08,40,18.70
2015,08,13,08,41,18.70
2015,08,13,08,42,18.80
2015,08,13,08,43,18.80
2015,08,13,08,44,18.80
2015,08,13,08,45,18.80
2015,08,13,08,46,18.90
2015,08,13,08,47,18.90
2015,08,13,08,48,18.90
2015,08,13,08,49,18.90
2015,08,13,08,50,18.80
2015,08,13,08,51,18.80
2015,08,13,08,52,18.70
2015,08,13,08,53,18.70
2015,08,13,08,54,18.60
2015,08,13,08,55,18.60
2015,08,13,08,56,18.60
2015,08,13,08,57,18.60
2015,08,13,08,58,18.50
2015,08,13,08,59,18.50
2015,08,13,09,00,18.50
2015,08,13,09,01,18.50
2015,08,13,09,02,18.50
2015,08,13,09,03,18.50
2015,08,13,09,04,18.50
2015,08,13,09,05,18.60
2015,08,13,09,06,18.60
2015,08,13,09,07,18.60
2015,08,13,09,08,18.70
2015,08,13,09,09,18.70
2015,08,13,09,10,18.70
2015,08,13,09,11,18.80
2015,08,13,09,12,18.90
2015,08,13,09,13,19.00
2015,08,13,09,14,19.10
2015,08,13,09,15,19.20
2015,08,13,09,16,19.30
2015,08,13,09,17,19.40
2015,08,13,09,18,19.50
2015,08,13,09,19,19.60
2015,08,13,09,20,19.70
2015,08,13,09,21,19.70
2015,08,13,09,22,19.80
2015,08,13,09,23,19.80
2015,08,13,09,24,19.80
2015,08,13,09,25,19.90
2015,08,13,09,26,19.90
2015,08,13,09,27,19.90
2015,08,13,09,28,19.90
2015,08,13,09,29,19.90
2015,08,13,09,30,19.90
2015,08,13,09,31,20.00
2015,08,13,09,32,20.00
2015,08,13,09,33,20.10
2015,08,13,09,34,20.10
2015,08,13,09,35,20.20
2015,08,13,09,36,20.20
2015,08,13,09,37,20.10
2015,08,13,09,38,20.10
2015,08,13,09,39,20.10
2015,08,13,09,40,20.00
2015,08,13,09,41,20.00
2015,08,13,09,42,20.10
2015,08,13,09,43,20.10
2015,08,13,09,44,20.20
2015,08,13,09,45,20.20
2015,08,13,09,46,20.30
2015,08,13,09,47,20.30
2015,08,13,09,48,20.30
2015,08,13,09,49,20.40
2015,08,13,09,50,20.40
2015,08,13,09,51,20.40
2015,08,13,09,52,20.40
2015,08,13,09,53,20.40
2015,08,13,09,54,20.40
2015,08,13,09,55,20.50
2015,08,13,09,56,20.50
2015,08,13,09,57,20.50
2015,08,13,09,58,20.50
2015,08,13,09,59,20.50
2015,08,13,10,00,20.50
2015,08,13,10,01,20.40
2015,08,13,10,02,20.40
2015,08,13,10,03,20.40
2015,08,13,10,04,20.50
2015,08,13,10,05,20.60
2015,08,13,10,06,20.60
2015,08,13,10,07,20.70
2015,08,13,10,08,20.70
2015,08,13,10,09,20.70
2015,08,13,10,10,20.70
2015,08,13,10,11,20.70
2015,08,13,10,12,20.70
2015,08,13,10,13,20.70
2015,08,13,10,14,20.60
2015,08,13,10,15,20.60
2015,08,13,10,16,20.70
2015,08,13,10,17,20.70
2015,08,13,10,18,20.80
2015,08,13,10,19,20.90
2015,08,13,10,20,21.00
2015,08,13,10,21,21.20
2015,08,13,10,22,21.30
2015,08,13,10,23,21.40
2015,08,13,10,24,21.50
2015,08,13,10,25,21.50
2015,08,13,10,26,21.60
2015,08,13,10,27,21.70
2015,08,13,10,28,21.70
2015,08,13,10,29,21.70
2015,08,13,10,30,21.80
2015,08,13,10,31,21.80
2015,08,13,10,32,21.80
2015,08,13,10,33,21.80
2015,08,13,10,34,21.90
2015,08,13,10,35,21.90
2015,08,13,10,36,22.00
2015,08,13,10,37,22.00
2015,08,13,10,38,22.00
2015,08,13,10,39,22.00
2015,08,13,10,40,21.90
2015,08,13,10,41,21.90
2015,08,13,10,42,21.90
2015,08,13,10,43,21.90
2015,08,13,10,44,21.90
2015,08,13,10,45,21.90
2015,08,13,10,46,21.90
2015,08,13,10,47,22.00
2015,08,13,10,48,22.00
2015,08,13,10,49,21.90
2015,08,13,10,50,22.00
2015,08,13,10,51,22.00
2015,08,13,10,52,22.10
2015,08,13,10,53,22.10
2015,08,13,10,54,22.10
2015,08,13,10,55,22.10
2015,08,13,10,56,22.10
2015,08,13,10,57,22.20
2015,08,13,10,58,22.20
2015,08,13,10,59,22.20
2015,08,13,11,00,22.20
2015,08,13,11,01,22.10
2015,08,13,11,02,22.10
2015,08,13,11,03,22.00
2015,08,13,11,04,22.00
2015,08,13,11,05,21.90
2015,08,13,11,06,21.80
2015,08,13,11,07,21.70
2015,08,13,11,08,21.60
2015,08,13,11,09,21.40
2015,08,13,11,10,21.30
2015,08,13,11,11,21.30
2015,08,13,11,12,21.20
2015,08,13,11,13,21.20
2015,08,13,11,14,21.30
2015,08,13,11,15,21.40
2015,08,13,11,16,21.50
2015,08,13,11,17,21.60
2015,08,13,11,18,21.80
2015,08,13,11,19,21.80
2015,08,13,11,20,21.90
2015,08,13,11,21,22.00
2015,08,13,11,22,22.00
2015,08,13,11,23,22.10
2015,08,13,11,24,22.20
2015,08,13,11,25,22.20
2015,08,13,11,26,22.20
2015,08,13,11,27,22.10
2015,08,13,11,28,22.20
2015,08,13,11,29,22.20
2015,08,13,11,30,22.20
2015,08,13,11,31,22.20
2015,08,13,11,32,22.10
2015,08,13,11,33,22.10
2015,08,13,11,34,22.00
2015,08,13,11,35,22.10
2015,08,13,11,36,22.10
2015,08,13,11,37,22.10
2015,08,13,11,38,22.10
2015,08,13,11,39,22.10
2015,08,13,11,40,22.20
2015,08,13,11,41,22.30
2015,08,13,11,42,22.40
2015,08,13,11,43,22.40
2015,08,13,11,44,22.30
2015,08,13,11,45,22.30
2015,08,13,11,46,22.30
2015,08,13,11,47,22.30
2015,08,13,11,48,22.40
2015,08,13,11,49,22.40
2015,08,13,11,50,22.40
2015,08,13,11,51,22.40
2015,08,13,11,52,22.50
2015,08,13,11,53,22.50
2015,08,13,11,54,22.50
2015,08,13,11,55,22.60
2015,08,13,11,56,22.70
2015,08,13,11,57,22.70
2015,08,13,11,58,22.70
2015,08,13,11,59,22.70
2015,08,13,12,00,22.80
2015,08,13,12,01,22.90
2015,08,13,12,02,22.90
2015,08,13,12,03,23.00
2015,08,13,12,04,23.00
2015,08,13,12,05,23.00
2015,08,13,12,06,22.90
2015,08,13,12,07,23.00
2015,08,13,12,08,23.00
2015,08,13,12,09,23.00
2015,08,13,12,10,23.00
2015,08,13,12,11,23.10
2015,08,13,12,12,23.10
2015,08,13,12,13,23.10
2015,08,13,12,14,23.10
2015,08,13,12,15,23.10
2015,08,13,12,16,23.10
2015,08,13,12,17,23.10
2015,08,13,12,18,23.10
2015,08,13,12,19,23.20
2015,08,13,12,20,23.20
2015,08,13,12,21,23.30
2015,08,13,12,22,23.30
2015,08,13,12,23,23.30
2015,08,13,12,24,23.30
2015,08,13,12,25,23.30
2015,08,13,12,26,23.30
2015,08,13,12,27,23.30
2015,08,13,12,28,23.30
2015,08,13,12,29,23.40
2015,08,13,12,30,23.50
2015,08,13,12,31,23.60
2015,08,13,12,32,23.60
2015,08,13,12,33,23.70
2015,08,13,12,34,23.60
2015,08,13,12,35,23.60
2015,08,13,12,36,23.60
2015,08,13,12,37,23.50
2015,08,13,12,38,23.50
2015,08,13,12,39,23.70
2015,08,13,12,40,23.70
2015,08,13,12,41,23.80
2015,08,13,12,42,23.90
2015,08,13,12,43,23.90
2015,08,13,12,44,24.00
2015,08,13,12,45,24.20
2015,08,13,12,46,24.20
2015,08,13,12,47,24.10
2015,08,13,12,48,24.10
2015,08,13,12,49,24.10
2015,08,13,12,50,24.20
2015,08,13,12,51,24.20
2015,08,13,12,52,24.20
2015,08,13,12,53,24.20
2015,08,13,12,54,24.10
2015,08,13,12,55,24.10
2015,08,13,12,56,24.10
2015,08,13,12,57,24.10
2015,08,13,12,58,24.00
2015,08,13,12,59,24.00
2015,08,13,13,00,23.90
2015,08,13,13,01,23.80
2015,08,13,13,02,23.70
2015,08,13,13,03,23.60
2015,08,13,13,04,23.50
2015,08,13,13,05,23.50
2015,08,13,13,06,23.30
2015,08,13,13,07,23.20
2015,08,13,13,08,23.20
2015,08,13,13,09,23.20
2015,08,13,13,10,23.10
2015,08,13,13,11,23.00
2015,08,13,13,12,23.10
2015,08,13,13,13,23.10
2015,08,13,13,14,23.10
2015,08,13,13,15,23.20
2015,08,13,13,16,23.20
2015,08,13,13,17,23.30
2015,08,13,13,18,23.20
2015,08,13,13,19,23.10
2015,08,13,13,20,23.00
2015,08,13,13,21,22.90
2015,08,13,13,22,22.90
2015,08,13,13,23,22.90
2015,08,13,13,24,22.70
2015,08,13,13,25,22.70
2015,08,13,13,26,22.60
2015,08,13,13,27,22.70
2015,08,13,13,28,22.70
2015,08,13,13,29,22.80
2015,08,13,13,30,22.90
2015,08,13,13,31,23.10
2015,08,13,13,32,23.10
2015,08,13,13,33,23.10
2015,08,13,13,34,23.20
2015,08,13,13,35,23.20
2015,08,13,13,36,23.30
2015,08,13,13,37,23.40
2015,08,13,13,38,23.40
2015,08,13,13,39,23.40
2015,08,13,13,40,23.40
2015,08,13,13,41,23.40
2015,08,13,13,42,23.40
2015,08,13,13,43,23.40
2015,08,13,13,44,23.40
2015,08,13,13,45,23.40
2015,08,13,13,46,23.50
2015,08,13,13,47,23.50
2015,08,13,13,48,23.60
2015,08,13,13,49,23.70
2015,08,13,13,50,23.80
2015,08,13,13,51,23.80
2015,08,13,13,52,23.90
2015,08,13,13,53,24.00
2015,08,13,13,54,24.20
2015,08,13,13,55,24.30
2015,08,13,13,56,24.40
2015,08,13,13,57,24.50
2015,08,13,13,58,24.60
2015,08,13,13,59,24.60
2015,08,13,14,00,24.70
2015,08,13,14,01,24.70
2015,08,13,14,02,24.80
2015,08,13,14,03,24.80
2015,08,13,14,04,24.80
2015,08,13,14,05,24.80
2015,08,13,14,06,24.80
2015,08,13,14,07,24.80
2015,08,13,14,08,24.70
2015,08,13,14,09,24.80
2015,08,13,14,10,24.90
2015,08,13,14,11,24.90
2015,08,13,14,12,25.00
2015,08,13,14,13,25.10
2015,08,13,14,14,25.20
2015,08,13,14,15,25.20
2015,08,13,14,16,25.20
2015,08,13,14,17,25.10
2015,08,13,14,18,25.10
2015,08,13,14,19,25.10
2015,08,13,14,20,25.10
2015,08,13,14,21,25.20
2015,08,13,14,22,25.20
2015,08,13,14,23,25.20
2015,08,13,14,24,25.20
2015,08,13,14,25,25.10
2015,08,13,14,26,25.20
2015,08,13,14,27,25.20
2015,08,13,14,28,25.20
2015,08,13,14,29,25.20
2015,08,13,14,30,25.10
2015,08,13,14,31,25.20
2015,08,13,14,32,25.20
2015,08,13,14,33,25.30
2015,08,13,14,34,25.40
2015,08,13,14,35,25.40
2015,08,13,14,36,25.40
2015,08,13,14,37,25.30
2015,08,13,14,38,25.30
2015,08,13,14,39,25.40
2015,08,13,14,40,25.40
2015,08,13,14,41,25.30
2015,08,13,14,42,25.30
2015,08,13,14,43,25.30
2015,08,13,14,44,25.20
2015,08,13,14,45,25.10
2015,08,13,14,46,25.10
2015,08,13,14,47,25.20
2015,08,13,14,48,25.20
2015,08,13,14,49,25.20
2015,08,13,14,50,25.20
2015,08,13,14,51,25.20
2015,08,13,14,52,25.20
2015,08,13,14,53,25.30
2015,08,13,14,54,25.30
2015,08,13,14,55,25.40
2015,08,13,14,56,25.40
2015,08,13,14,57,25.40
2015,08,13,14,58,25.30
2015,08,13,14,59,25.30
2015,08,13,15,00,25.40
2015,08,13,15,01,25.30
2015,08,13,15,02,25.40
2015,08,13,15,03,25.40
2015,08,13,15,04,25.30
2015,08,13,15,05,25.30
2015,08,13,15,06,25.40
2015,08,13,15,07,25.30
2015,08,13,15,08,25.30
2015,08,13,15,09,25.30
2015,08,13,15,10,25.20
2015,08,13,15,11,25.10
2015,08,13,15,12,25.10
2015,08,13,15,13,25.10
2015,08,13,15,14,25.10
2015,08,13,15,15,25.10
2015,08,13,15,16,25.10
2015,08,13,15,17,25.10
2015,08,13,15,18,25.10
2015,08,13,15,19,25.20
2015,08,13,15,20,25.20
2015,08,13,15,21,25.20
2015,08,13,15,22,25.20
2015,08,13,15,23,25.30
2015,08,13,15,24,25.30
2015,08,13,15,25,25.40
2015,08,13,15,26,25.40
2015,08,13,15,27,25.40
2015,08,13,15,28,25.50
2015,08,13,15,29,25.50
2015,08,13,15,30,25.50
2015,08,13,15,31,25.50
2015,08,13,15,32,25.60
2015,08,13,15,33,25.60
2015,08,13,15,34,25.60
2015,08,13,15,35,25.70
2015,08,13,15,36,25.70
2015,08,13,15,37,25.60
2015,08,13,15,38,25.70
2015,08,13,15,39,25.60
2015,08,13,15,40,25.60
2015,08,13,15,41,25.60
2015,08,13,15,42,25.60
2015,08,13,15,43,25.60
2015,08,13,15,44,25.70
2015,08,13,15,45,25.70
2015,08,13,15,46,25.80
2015,08,13,15,47,25.90
2015,08,13,15,48,25.90
2015,08,13,15,49,25.90
2015,08,13,15,50,25.90
2015,08,13,15,51,25.80
2015,08,13,15,52,25.80
2015,08,13,15,53,25.80
2015,08,13,15,54,25.80
2015,08,13,15,55,25.80
2015,08,13,15,56,25.80
2015,08,13,15,57,25.90
2015,08,13,15,58,25.90
2015,08,13,15,59,25.90
2015,08,13,16,00,25.90
2015,08,13,16,01,25.90
2015,08,13,16,02,26.00
2015,08,13,16,03,26.00
2015,08,13,16,04,25.90
2015,08,13,16,05,25.90
2015,08,13,16,06,25.90
2015,08,13,16,07,25.90
2015,08,13,16,08,25.90
2015,08,13,16,09,25.90
2015,08,13,16,10,25.90
2015,08,13,16,11,25.90
2015,08,13,16,12,25.90
2015,08,13,16,13,25.80
2015,08,13,16,14,25.70
2015,08,13,16,15,25.60
2015,08,13,16,16,25.60
2015,08,13,16,17,25.50
2015,08,13,16,18,25.50
2015,08,13,16,19,25.40
2015,08,13,16,20,25.40
2015,08,13,16,21,25.40
2015,08,13,16,22,25.30
2015,08,13,16,23,25.30
2015,08,13,16,24,25.30
2015,08,13,16,25,25.30
2015,08,13,16,26,25.30
2015,08,13,16,27,25.30
2015,08,13,16,28,25.30
2015,08,13,16,29,25.40
2015,08,13,16,30,25.40
2015,08,13,16,31,25.40
2015,08,13,16,32,25.40
2015,08,13,16,33,25.50
2015,08,13,16,34,25.60
2015,08,13,16,35,25.70
2015,08,13,16,36,25.70
2015,08,13,16,37,25.80
2015,08,13,16,38,25.90
2015,08,13,16,39,25.90
2015,08,13,16,40,26.00
2015,08,13,16,41,26.10
2015,08,13,16,42,26.10
2015,08,13,16,43,26.20
2015,08,13,16,44,26.30
2015,08,13,16,45,26.40
2015,08,13,16,46,26.40
2015,08,13,16,47,26.50
2015,08,13,16,48,26.60
2015,08,13,16,49,26.70
2015,08,13,16,50,26.70
2015,08,13,16,51,26.70
2015,08,13,16,52,26.70
2015,08,13,16,53,26.70
2015,08,13,16,54,26.60
2015,08,13,16,55,26.60
2015,08,13,16,56,26.70
2015,08,13,16,57,26.70
2015,08,13,16,58,26.80
2015,08,13,16,59,26.80
2015,08,13,17,00,26.90
2015,08,13,17,01,26.90
2015,08,13,17,02,26.90
2015,08,13,17,03,27.00
2015,08,13,17,04,27.00
2015,08,13,17,05,27.00
2015,08,13,17,06,26.90
2015,08,13,17,07,26.90
2015,08,13,17,08,26.80
2015,08,13,17,09,26.70
2015,08,13,17,10,26.60
2015,08,13,17,11,26.60
2015,08,13,17,12,26.60
2015,08,13,17,13,26.60
2015,08,13,17,14,26.60
2015,08,13,17,15,26.60
2015,08,13,17,16,26.60
2015,08,13,17,17,26.70
2015,08,13,17,18,26.80
2015,08,13,17,19,26.80
2015,08,13,17,20,26.80
2015,08,13,17,21,26.80
2015,08,13,17,22,26.80